| time (UTC) | temp C | wind direction | speed KPH | gust KPH | rain 1hr cm | rain 24hr cm | rain mn cm | humidity % | barometer mb |
| 20260507231533 | 13 | 8 | 4.8 | 11.3 | 0.00 | 0.00 | 0.00 | 28 | 1011.3 |
| 20260507230023 | 14 | 331 | 6.4 | 12.9 | 0.00 | 0.00 | 0.00 | 28 | 1011.2 |
| 20260507224530 | 14 | 292 | 0.0 | 16.1 | 0.00 | 0.00 | 0.00 | 27 | 1011.2 |
| 20260507223022 | 15 | 41 | 1.6 | 16.1 | 0.00 | 0.00 | 0.00 | 27 | 1011.0 |
| 20260507221523 | 15 | 215 | 1.6 | 19.3 | 0.00 | 0.00 | 0.00 | 27 | 1010.9 |
| 20260507220019 | 15 | 286 | 3.2 | 27.4 | 0.00 | 0.00 | 0.00 | 26 | 1010.7 |
| 20260507214515 | 15 | 311 | 6.4 | 17.7 | 0.00 | 0.00 | 0.00 | 25 | 1010.6 |
| 20260507213014 | 16 | 192 | 8.0 | 19.3 | 0.00 | 0.00 | 0.00 | 25 | 1010.6 |
| 20260507211519 | 15 | 327 | 6.4 | 20.9 | 0.00 | 0.00 | 0.00 | 27 | 1010.5 |
| 20260507210010 | 16 | 358 | 8.0 | 14.5 | 0.00 | 0.00 | 0.00 | 26 | 1010.6 |
| 20260507204509 | 16 | 19 | 6.4 | 16.1 | 0.00 | 0.00 | 0.00 | 26 | 1010.5 |
| 20260507203010 | 16 | 359 | 11.3 | 24.1 | 0.00 | 0.00 | 0.00 | 26 | 1010.3 |
| 20260507201506 | 16 | 328 | 1.6 | 22.5 | 0.00 | 0.00 | 0.00 | 31 | 1010.5 |
| 20260507200004 | 16 | 318 | 8.0 | 19.3 | 0.00 | 0.00 | 0.00 | 29 | 1010.7 |
| 20260507194504 | 15 | 17 | 4.8 | 14.5 | 0.00 | 0.00 | 0.00 | 31 | 1011.2 |
| 20260507193003 | 16 | 360 | 3.2 | 19.3 | 0.00 | 0.00 | 0.00 | 32 | 1011.1 |
| 20260507191502 | 16 | 317 | 8.0 | 12.9 | 0.00 | 0.00 | 0.00 | 29 | 1011.1 |
| 20260507190106 | 16 | 321 | 9.7 | 16.1 | 0.00 | 0.00 | 0.00 | 31 | 1011.3 |
| 20260507184602 | 17 | 301 | 3.2 | 17.7 | 0.00 | 0.00 | 0.00 | 30 | 1011.3 |
| 20260507183058 | 17 | 288 | 3.2 | 14.5 | 0.00 | 0.00 | 0.00 | 30 | 1011.5 |
| 20260507181559 | 16 | 255 | 3.2 | 16.1 | 0.00 | 0.00 | 0.00 | 31 | 1011.6 |
| 20260507180054 | 16 | 359 | 11.3 | 19.3 | 0.00 | 0.00 | 0.00 | 29 | 1011.7 |
| 20260507174552 | 16 | 22 | 4.8 | 12.9 | 0.00 | 0.00 | 0.00 | 28 | 1011.7 |
| 20260507173050 | 16 | 6 | 6.4 | 16.1 | 0.00 | 0.00 | 0.00 | 30 | 1012.1 |
| 20260507171548 | 16 | 180 | 1.6 | 12.9 | 0.00 | 0.00 | 0.00 | 30 | 1012.2 |
| 20260507170046 | 16 | 26 | 8.0 | 17.7 | 0.00 | 0.00 | 0.00 | 33 | 1012.4 |
| 20260507164556 | 15 | 1 | 4.8 | 16.1 | 0.00 | 0.00 | 0.00 | 28 | 1012.5 |
| 20260507163041 | 15 | 190 | 3.2 | 12.9 | 0.00 | 0.00 | 0.00 | 32 | 1012.8 |
| 20260507161540 | 14 | 195 | 3.2 | 9.7 | 0.00 | 0.00 | 0.00 | 38 | 1012.8 |
| 20260507160039 | 13 | 47 | 1.6 | 6.4 | 0.00 | 0.15 | 0.00 | 34 | 1012.9 |
| 20260507154539 | 13 | 9 | 4.8 | 8.0 | 0.00 | 0.15 | 0.00 | 37 | 1013.0 |
| 20260507153030 | 13 | 340 | 8.0 | 12.9 | 0.00 | 0.15 | 0.00 | 36 | 1013.1 |
| 20260507151528 | 13 | 184 | 3.2 | 14.5 | 0.00 | 0.15 | 0.00 | 34 | 1013.2 |
| 20260507150127 | 12 | 330 | 1.6 | 8.0 | 0.00 | 0.15 | 0.00 | 40 | 1013.5 |
| 20260507144528 | 12 | 56 | 3.2 | 11.3 | 0.00 | 0.15 | 0.00 | 37 | 1013.5 |
| 20260507143022 | 12 | 92 | 1.6 | 9.7 | 0.00 | 0.15 | 0.00 | 40 | 1013.7 |
| 20260507141515 | 12 | 36 | 1.6 | 11.3 | 0.00 | 0.15 | 0.00 | 40 | 1014.1 |
| 20260507140010 | 11 | 2 | 3.2 | 11.3 | 0.00 | 0.15 | 0.00 | 40 | 1014.2 |
| 20260507134508 | 11 | 229 | 3.2 | 6.4 | 0.00 | 0.15 | 0.00 | 24 | 1014.6 |
| 20260507133002 | 10 | 226 | 1.6 | 8.0 | 0.00 | 0.15 | 0.00 | 23 | 1014.7 |
| 20260507131558 | 10 | 253 | 0.0 | 4.8 | 0.00 | 0.15 | 0.00 | 30 | 1014.7 |
| 20260507130107 | 9 | 28 | 0.0 | 4.8 | 0.00 | 0.15 | 0.00 | 27 | 1014.5 |
| 20260507124552 | 8 | 213 | 0.0 | 3.2 | 0.00 | 0.20 | 0.00 | 28 | 1014.6 |
| 20260507123053 | 7 | 197 | 0.0 | 4.8 | 0.00 | 0.20 | 0.00 | 35 | 1014.6 |
| 20260507121604 | 6 | 192 | 0.0 | 3.2 | 0.00 | 0.20 | 0.00 | 38 | 1014.5 |
| 20260507120057 | 5 | 325 | 0.0 | 3.2 | 0.00 | 0.20 | 0.00 | 41 | 1014.4 |
| 20260507114627 | 5 | 339 | 0.0 | 1.6 | 0.00 | 0.23 | 0.00 | 43 | 1014.5 |
| 20260507113045 | 4 | 342 | 0.0 | 1.6 | 0.00 | 0.23 | 0.00 | 44 | 1014.3 |
| 20260507111544 | 4 | 331 | 0.0 | 0.0 | 0.00 | 0.23 | 0.00 | 44 | 1014.2 |
| 20260507110041 | 4 | 330 | 0.0 | 0.0 | 0.00 | 0.53 | 0.00 | 43 | 1013.6 |
| 20260507104539 | 4 | 330 | 0.0 | 0.0 | 0.00 | 0.53 | 0.00 | 43 | 1013.5 |
| 20260507103037 | 4 | 330 | 0.0 | 0.0 | 0.00 | 0.53 | 0.00 | 43 | 1013.5 |
| 20260507101542 | 4 | 330 | 0.0 | 0.0 | 0.00 | 0.53 | 0.00 | 42 | 1013.4 |
| 20260507100036 | 4 | 330 | 0.0 | 0.0 | 0.00 | 0.76 | 0.00 | 42 | 1013.4 |
| 20260507094533 | 5 | 330 | 0.0 | 0.0 | 0.00 | 0.76 | 0.00 | 40 | 1013.4 |
| 20260507093030 | 5 | 330 | 0.0 | 0.0 | 0.00 | 0.76 | 0.00 | 39 | 1013.3 |
| 20260507091533 | 5 | 330 | 0.0 | 0.0 | 0.00 | 0.76 | 0.00 | 40 | 1013.4 |
| 20260507090035 | 5 | 330 | 0.0 | 0.0 | 0.00 | 0.89 | 0.00 | 38 | 1013.5 |
| 20260507084527 | 6 | 330 | 0.0 | 0.0 | 0.00 | 0.89 | 0.00 | 37 | 1013.5 |
| 20260507083031 | 6 | 330 | 0.0 | 0.0 | 0.00 | 0.89 | 0.00 | 37 | 1013.4 |
| 20260507081521 | 6 | 330 | 0.0 | 0.0 | 0.00 | 0.89 | 0.00 | 36 | 1013.4 |
| 20260507080022 | 7 | 330 | 0.0 | 0.0 | 0.00 | 0.94 | 0.00 | 36 | 1013.4 |
| 20260507074515 | 7 | 330 | 0.0 | 1.6 | 0.00 | 0.94 | 0.00 | 38 | 1013.3 |
| 20260507073013 | 7 | 330 | 0.0 | 1.6 | 0.00 | 0.94 | 0.00 | 38 | 1013.2 |
| 20260507071512 | 8 | 330 | 0.0 | 1.6 | 0.00 | 0.94 | 0.00 | 37 | 1013.1 |
| 20260507070012 | 8 | 330 | 0.0 | 0.0 | 0.00 | 0.94 | 0.00 | 36 | 1013.1 |
| 20260507064508 | 8 | 332 | 0.0 | 4.8 | 0.00 | 0.94 | 0.00 | 32 | 1013.2 |
| 20260507063007 | 8 | 36 | 0.0 | 6.4 | 0.00 | 0.94 | 0.00 | 33 | 1013.2 |
| 20260507061506 | 8 | 346 | 1.6 | 4.8 | 0.00 | 0.94 | 0.00 | 33 | 1013.3 |
| 20260507060005 | 8 | 4 | 0.0 | 4.8 | 0.00 | 0.94 | 0.00 | 34 | 1013.3 |
| 20260507054509 | 8 | 336 | 1.6 | 3.2 | 0.00 | 0.94 | 0.00 | 36 | 1013.4 |
| 20260507053000 | 8 | 336 | 0.0 | 3.2 | 0.00 | 0.94 | 0.00 | 39 | 1013.5 |
| 20260507051605 | 8 | 323 | 0.0 | 3.2 | 0.00 | 0.94 | 0.00 | 38 | 1013.8 |
| 20260507050059 | 8 | 323 | 0.0 | 1.6 | 0.00 | 0.94 | 0.00 | 39 | 1013.7 |
| 20260507044558 | 8 | 323 | 0.0 | 1.6 | 0.00 | 0.94 | 0.00 | 39 | 1013.7 |
| 20260507043055 | 8 | 323 | 0.0 | 1.6 | 0.00 | 0.94 | 0.00 | 39 | 1013.5 |
| 20260507041555 | 9 | 325 | 0.0 | 1.6 | 0.00 | 0.94 | 0.00 | 39 | 1013.4 |
| 20260507040055 | 9 | 325 | 0.0 | 1.6 | 0.00 | 0.94 | 0.00 | 38 | 1013.5 |
| 20260507034554 | 9 | 324 | 0.0 | 1.6 | 0.00 | 0.94 | 0.94 | 38 | 1013.5 |
| 20260507033052 | 9 | 324 | 0.0 | 3.2 | 0.00 | 0.94 | 0.94 | 36 | 1013.3 |
| 20260507031647 | 10 | 359 | 0.0 | 3.2 | 0.00 | 0.94 | 0.94 | 37 | 1013.6 |
| 20260507030044 | 10 | 338 | 1.6 | 6.4 | 0.00 | 0.94 | 0.94 | 43 | 1013.3 |
| 20260507024542 | 10 | 340 | 0.0 | 0.0 | 0.00 | 0.94 | 0.94 | 43 | 1013.0 |
| 20260507023048 | 10 | 340 | 0.0 | 0.0 | 0.00 | 0.94 | 0.94 | 43 | 1012.8 |
| 20260507021544 | 10 | 340 | 0.0 | 0.0 | 0.00 | 0.94 | 0.94 | 42 | 1012.6 |
| 20260507014541 | 10 | 340 | 0.0 | 0.0 | 0.00 | 0.94 | 0.94 | 42 | 1012.4 |
| 20260507013049 | 10 | 340 | 0.0 | 0.0 | 0.00 | 0.94 | 0.94 | 41 | 1012.5 |
| 20260507011538 | 10 | 340 | 0.0 | 0.0 | 0.00 | 0.94 | 0.94 | 41 | 1012.1 |
| 20260507010037 | 10 | 340 | 0.0 | 0.0 | 0.00 | 0.94 | 0.94 | 41 | 1012.1 |
| 20260507004542 | 10 | 340 | 0.0 | 0.0 | 0.00 | 0.94 | 0.94 | 41 | 1012.3 |
| 20260507003042 | 10 | 340 | 0.0 | 0.0 | 0.00 | 0.94 | 0.94 | 40 | 1012.4 |
| 20260507001543 | 10 | 340 | 0.0 | 1.6 | 0.00 | 0.94 | 0.94 | 39 | 1012.5 |
| 20260507000035 | 10 | 340 | 0.0 | 0.0 | 0.00 | 0.94 | 0.94 | 39 | 1013.0 |
| 20260506234534 | 10 | 340 | 0.0 | 0.0 | 0.00 | 0.94 | 0.94 | 39 | 1012.2 |
| 20260506233031 | 11 | 340 | 0.0 | 3.2 | 0.00 | 0.94 | 0.94 | 37 | 1011.9 |